User: anonymous   Login
Location: Unspecified
(0.0000°N, 0.0000°E)
Time: 01:49:38
(UTC+02:00)
Language:

SeaSat 1 - Orbit

View from above orbital plane
View from above orbital plane
View from above satellite
View from above satellite

Ground track
Ground track

The orbit data is extracted from the following two-line orbital elements,

1 10967U 78064A   15244.89186156 +.00000023 +00000-0 +47208-4 0  9998
2 10967 107.9964 012.7968 0002714 273.8237 086.2597 14.43429947951942
Epoch (UTC): 01 September 2015 21:24:16
Eccentricity: 0.0002714
inclination: 107.9964°
perigee height: 745 km
apogee height: 749 km
right ascension of ascending node: 12.7968°
argument of perigee: 273.8237°
revolutions per day: 14.43429947
mean anomaly at epoch: 86.2597°
orbit number at epoch: 95194

The dashed part of the orbit path shows where the satellite is in the earth's shadow,  

DLR